| time (UTC) | temp C | wind direction | speed KPH | gust KPH | rain 1hr cm | rain 24hr cm | rain mn cm | humidity % | barometer mb |
| 20260507171605 | 12 | 89 | 3.2 | 0.0 | 0.00 | 0.00 | 0.00 | 50 | 1002.3 |
| 20260507170054 | 11 | 109 | 1.6 | 0.0 | 0.00 | 0.00 | 0.00 | 52 | 1002.4 |
| 20260507164552 | 12 | 5 | 3.2 | 0.0 | 0.00 | 0.00 | 0.00 | 53 | 1002.6 |
| 20260507163051 | 11 | 299 | 1.6 | 0.0 | 0.00 | 0.00 | 0.00 | 58 | 1002.9 |
| 20260507161545 | 11 | 63 | 1.6 | 0.0 | 0.00 | 0.00 | 0.00 | 70 | 1003.4 |
| 20260507160051 | 10 | 62 | 3.2 | 0.0 | 0.00 | 0.00 | 0.00 | 66 | 1003.3 |
| 20260507154543 | 10 | 305 | 3.2 | 0.0 | 0.00 | 0.00 | 0.00 | 68 | 1003.3 |
| 20260507153045 | 10 | 317 | 1.6 | 0.0 | 0.00 | 0.00 | 0.00 | 68 | 1003.2 |
| 20260507151543 | 10 | 34 | 1.6 | 0.0 | 0.00 | 0.00 | 0.00 | 68 | 1003.3 |
| 20260507150041 | 10 | 51 | 1.6 | 0.0 | 0.00 | 0.00 | 0.00 | 68 | 1003.3 |
| 20260507144542 | 10 | 126 | 3.2 | 0.0 | 0.00 | 0.00 | 0.00 | 69 | 1003.2 |
| 20260507143043 | 10 | 315 | 3.2 | 0.0 | 0.00 | 0.00 | 0.00 | 68 | 1003.1 |
| 20260507141543 | 10 | 161 | 0.0 | 0.0 | 0.00 | 0.00 | 0.00 | 68 | 1003.1 |
| 20260507140043 | 10 | 149 | 1.6 | 0.0 | 0.00 | 0.00 | 0.00 | 68 | 1003.0 |
| 20260507134538 | 10 | 94 | 1.6 | 0.0 | 0.00 | 0.00 | 0.00 | 67 | 1003.0 |
| 20260507133035 | 10 | 98 | 1.6 | 0.0 | 0.00 | 0.00 | 0.00 | 73 | 1003.2 |
| 20260507131535 | 10 | 51 | 1.6 | 0.0 | 0.00 | 0.00 | 0.00 | 72 | 1003.5 |
| 20260507130029 | 8 | 63 | 3.2 | 0.0 | 0.00 | 0.00 | 0.00 | 74 | 1003.8 |
| 20260507124545 | 8 | 5 | 1.6 | 0.0 | 0.00 | 0.00 | 0.00 | 76 | 1003.5 |
| 20260507123029 | 8 | 191 | 1.6 | 0.0 | 0.00 | 0.00 | 0.00 | 76 | 1003.7 |
| 20260507121526 | 8 | 45 | 0.0 | 0.0 | 0.00 | 0.00 | 0.00 | 80 | 1003.8 |
| 20260507120025 | 7 | 49 | 1.6 | 0.0 | 0.00 | 0.00 | 0.00 | 85 | 1003.9 |
| 20260507114528 | 6 | 222 | 0.0 | 0.0 | 0.00 | 0.00 | 0.00 | 91 | 1003.8 |
| 20260507113023 | 5 | 222 | 0.0 | 0.0 | 0.00 | 0.00 | 0.00 | 93 | 1003.8 |
| 20260507111523 | 5 | 302 | 0.0 | 0.0 | 0.00 | 0.00 | 0.00 | 94 | 1004.0 |
| 20260507110029 | 5 | 302 | 0.0 | 0.0 | 0.00 | 0.00 | 0.00 | 95 | 1004.1 |
| 20260507104524 | 5 | 302 | 1.6 | 0.0 | 0.00 | 0.00 | 0.00 | 96 | 1003.9 |
| 20260507103020 | 5 | 302 | 0.0 | 0.0 | 0.00 | 0.00 | 0.00 | 96 | 1003.9 |
| 20260507101519 | 5 | 302 | 0.0 | 0.0 | 0.00 | 0.00 | 0.00 | 96 | 1004.0 |
| 20260507100023 | 5 | 302 | 0.0 | 0.0 | 0.00 | 0.00 | 0.00 | 95 | 1003.8 |
| 20260507094517 | 5 | 302 | 0.0 | 0.0 | 0.00 | 0.00 | 0.00 | 95 | 1003.8 |
| 20260507093023 | 5 | 302 | 0.0 | 0.0 | 0.00 | 0.00 | 0.00 | 95 | 1003.7 |
| 20260507091518 | 5 | 302 | 0.0 | 0.0 | 0.00 | 0.00 | 0.00 | 94 | 1003.7 |
| 20260507090011 | 5 | 302 | 0.0 | 0.0 | 0.00 | 0.00 | 0.00 | 92 | 1003.6 |
| 20260507084510 | 6 | 302 | 0.0 | 0.0 | 0.00 | 0.00 | 0.00 | 91 | 1003.6 |
| 20260507083009 | 6 | 257 | 1.6 | 0.0 | 0.00 | 0.00 | 0.00 | 89 | 1003.5 |
| 20260507081506 | 6 | 294 | 0.0 | 0.0 | 0.00 | 0.00 | 0.00 | 90 | 1002.9 |
| 20260507080004 | 6 | 297 | 1.6 | 0.0 | 0.00 | 0.00 | 0.00 | 90 | 1002.8 |
| 20260507074502 | 6 | 313 | 1.6 | 0.0 | 0.00 | 0.00 | 0.00 | 92 | 1002.8 |
| 20260507073058 | 6 | 286 | 0.0 | 0.0 | 0.00 | 0.00 | 0.00 | 94 | 1002.8 |
| 20260507071557 | 6 | 286 | 0.0 | 0.0 | 0.00 | 0.00 | 0.00 | 93 | 1003.1 |
| 20260507070114 | 6 | 286 | 1.6 | 0.0 | 0.00 | 0.00 | 0.00 | 91 | 1003.2 |
| 20260507064604 | 6 | 22 | 1.6 | 0.0 | 0.00 | 0.00 | 0.00 | 92 | 1003.0 |
| 20260507063059 | 6 | 13 | 1.6 | 0.0 | 0.00 | 0.00 | 0.00 | 94 | 1002.9 |
| 20260507061552 | 6 | 301 | 1.6 | 0.0 | 0.00 | 0.00 | 0.00 | 94 | 1002.6 |
| 20260507060050 | 7 | 325 | 1.6 | 0.0 | 0.00 | 0.00 | 0.00 | 95 | 1002.7 |
| 20260507054552 | 7 | 305 | 0.0 | 0.0 | 0.00 | 0.00 | 0.00 | 95 | 1002.7 |
| 20260507053046 | 7 | 259 | 1.6 | 0.0 | 0.00 | 0.00 | 0.00 | 96 | 1002.6 |
| 20260507051544 | 7 | 269 | 1.6 | 0.0 | 0.00 | 0.00 | 0.00 | 97 | 1002.3 |
| 20260507050043 | 7 | 269 | 0.0 | 0.0 | 0.00 | 0.00 | 0.00 | 97 | 1002.1 |
| 20260507044544 | 7 | 269 | 1.6 | 0.0 | 0.00 | 0.00 | 0.00 | 96 | 1002.0 |
| 20260507043041 | 7 | 330 | 1.6 | 0.0 | 0.00 | 0.00 | 0.00 | 96 | 1002.3 |
| 20260507041537 | 7 | 319 | 1.6 | 0.0 | 0.00 | 0.00 | 0.00 | 96 | 1002.5 |
| 20260507040038 | 7 | 290 | 1.6 | 0.0 | 0.00 | 0.00 | 0.00 | 96 | 1002.6 |
| 20260507034538 | 8 | 329 | 1.6 | 0.0 | 0.00 | 0.00 | 0.00 | 95 | 1002.5 |
| 20260507033033 | 8 | 300 | 3.2 | 0.0 | 0.00 | 0.00 | 0.00 | 96 | 1002.5 |
| 20260507031530 | 8 | 355 | 3.2 | 0.0 | 0.00 | 0.00 | 0.00 | 96 | 1002.5 |
| 20260507030026 | 8 | 327 | 1.6 | 0.0 | 0.00 | 0.00 | 0.86 | 98 | 1002.0 |
| 20260507024526 | 9 | 187 | 1.6 | 0.0 | 0.00 | 0.00 | 0.86 | 98 | 1001.9 |
| 20260507023024 | 10 | 322 | 1.6 | 0.0 | 0.00 | 0.00 | 0.84 | 99 | 1001.5 |
| 20260507021519 | 11 | 273 | 1.6 | 0.0 | 0.00 | 0.00 | 0.84 | 99 | 1001.5 |
| 20260507020027 | 11 | 323 | 1.6 | 0.0 | 0.00 | 0.00 | 0.84 | 99 | 1001.2 |
| 20260507014514 | 11 | 265 | 0.0 | 0.0 | 0.00 | 0.00 | 0.81 | 100 | 1001.2 |
| 20260507013019 | 12 | 265 | 0.0 | 0.0 | 0.00 | 0.00 | 0.81 | 100 | 1000.8 |
| 20260507011512 | 12 | 265 | 0.0 | 0.0 | 0.00 | 0.00 | 0.81 | 100 | 1001.1 |
| 20260507010011 | 12 | 265 | 0.0 | 0.0 | 0.00 | 0.00 | 0.81 | 99 | 1000.9 |
| 20260507004510 | 12 | 264 | 1.6 | 0.0 | 0.00 | 0.00 | 0.81 | 99 | 1000.7 |
| 20260507003011 | 12 | 298 | 1.6 | 0.0 | 0.00 | 0.00 | 0.81 | 99 | 1000.6 |
| 20260507001509 | 12 | 278 | 0.0 | 0.0 | 0.00 | 0.00 | 0.81 | 99 | 1000.3 |
| 20260507000009 | 13 | 48 | 0.0 | 0.0 | 0.00 | 0.00 | 0.81 | 99 | 1000.2 |
| 20260506234515 | 13 | 48 | 0.0 | 0.0 | 0.00 | 0.00 | 0.81 | 99 | 1000.0 |
| 20260506233009 | 13 | 48 | 0.0 | 0.0 | 0.00 | 0.00 | 0.81 | 99 | 999.8 |
| 20260506231507 | 15 | 289 | 0.0 | 0.0 | 0.00 | 0.00 | 0.81 | 99 | 999.7 |
| 20260506230007 | 15 | 119 | 0.0 | 0.0 | 0.00 | 0.00 | 0.66 | 99 | 999.3 |
| 20260506224508 | 15 | 119 | 0.0 | 0.0 | 0.00 | 0.00 | 0.53 | 99 | 999.4 |
| 20260506223005 | 15 | 181 | 0.0 | 0.0 | 0.00 | 0.00 | 0.53 | 99 | 999.5 |
| 20260506221504 | 15 | 181 | 0.0 | 0.0 | 0.00 | 0.00 | 0.51 | 99 | 999.7 |
| 20260506220010 | 15 | 229 | 0.0 | 0.0 | 0.00 | 0.00 | 0.43 | 99 | 999.7 |
| 20260506214504 | 15 | 281 | 0.0 | 0.0 | 0.00 | 0.00 | 0.43 | 99 | 1000.0 |
| 20260506213003 | 16 | 316 | 0.0 | 0.0 | 0.00 | 0.00 | 0.41 | 99 | 1000.1 |
| 20260506211501 | 16 | 309 | 0.0 | 0.0 | 0.00 | 0.00 | 0.41 | 99 | 1000.2 |
| 20260506210000 | 15 | 293 | 1.6 | 0.0 | 0.00 | 0.00 | 0.41 | 98 | 1000.4 |
| 20260506204601 | 15 | 295 | 1.6 | 0.0 | 0.00 | 0.00 | 0.41 | 98 | 1000.4 |
| 20260506203100 | 15 | 307 | 1.6 | 0.0 | 0.00 | 0.00 | 0.41 | 98 | 1000.4 |
| 20260506201559 | 15 | 343 | 1.6 | 0.0 | 0.00 | 0.00 | 0.38 | 98 | 1000.5 |
| 20260506200058 | 15 | 304 | 3.2 | 0.0 | 0.00 | 0.00 | 0.38 | 98 | 1000.5 |
| 20260506194558 | 15 | 321 | 3.2 | 0.0 | 0.00 | 0.00 | 0.38 | 98 | 1000.6 |
| 20260506193057 | 15 | 164 | 3.2 | 0.0 | 0.00 | 0.00 | 0.38 | 98 | 1000.8 |
| 20260506191556 | 15 | 289 | 3.2 | 0.0 | 0.00 | 0.00 | 0.36 | 98 | 1001.1 |
| 20260506190058 | 15 | 57 | 1.6 | 0.0 | 0.00 | 0.00 | 0.33 | 98 | 1001.1 |
| 20260506184604 | 15 | 294 | 1.6 | 0.0 | 0.00 | 0.00 | 0.28 | 99 | 1001.1 |
| 20260506183054 | 15 | 306 | 0.0 | 0.0 | 0.00 | 0.00 | 0.23 | 99 | 1001.3 |
| 20260506181553 | 15 | 314 | 1.6 | 0.0 | 0.00 | 0.00 | 0.18 | 98 | 1001.6 |
| 20260506180054 | 15 | 355 | 0.0 | 0.0 | 0.00 | 0.00 | 0.15 | 98 | 1001.9 |
| 20260506174552 | 15 | 88 | 0.0 | 0.0 | 0.00 | 0.00 | 0.10 | 97 | 1002.5 |
| 20260506173105 | 15 | 88 | 0.0 | 0.0 | 0.00 | 0.00 | 0.08 | 95 | 1002.3 |